| time (UTC) | temp F | wind direction | speed knots | gust knots | rain 1hr in | rain 24hr in | rain mn in | humidity % | barometer mb |
| 20260506223622 | 58 | 0 | 1.7 | 2.6 | 0.05 | 0.30 | 0.30 | 97 | 995.0 |
| 20260506223123 | 58 | 192 | 1.7 | 2.6 | 0.05 | 0.30 | 0.30 | 97 | 995.0 |
| 20260506222623 | 58 | 169 | 1.7 | 2.6 | 0.05 | 0.30 | 0.30 | 97 | 995.0 |
| 20260506222123 | 58 | 182 | 1.7 | 2.6 | 0.05 | 0.30 | 0.30 | 97 | 995.0 |
| 20260506221623 | 58 | 164 | 1.7 | 2.6 | 0.04 | 0.30 | 0.30 | 96 | 995.0 |
| 20260506221123 | 58 | 194 | 1.7 | 2.6 | 0.04 | 0.30 | 0.30 | 96 | 995.0 |
| 20260506220623 | 58 | 176 | 1.7 | 2.6 | 0.04 | 0.30 | 0.30 | 96 | 995.0 |
| 20260506220611 | 58 | 177 | 1.7 | 2.6 | 0.04 | 0.30 | 0.30 | 96 | 995.1 |
| 20260506215608 | 58 | 162 | 1.7 | 3.5 | 0.04 | 0.29 | 0.29 | 96 | 995.1 |
| 20260506215054 | 58 | 152 | 1.7 | 3.5 | 0.01 | 0.27 | 0.27 | 96 | 995.0 |
| 20260506214554 | 59 | 136 | 1.7 | 2.6 | 0.00 | 0.26 | 0.26 | 96 | 995.0 |
| 20260506214043 | 59 | 167 | 1.7 | 4.3 | 0.00 | 0.26 | 0.26 | 96 | 995.1 |
| 20260506214037 | 59 | 162 | 1.7 | 2.6 | 0.00 | 0.26 | 0.26 | 96 | 995.1 |
| 20260506213040 | 59 | 183 | 1.7 | 4.3 | 0.01 | 0.26 | 0.26 | 96 | 995.1 |
| 20260506212538 | 59 | 175 | 2.6 | 3.5 | 0.02 | 0.26 | 0.26 | 96 | 995.0 |
| 20260506212038 | 59 | 177 | 1.7 | 3.5 | 0.02 | 0.26 | 0.26 | 96 | 995.2 |
| 20260506211538 | 59 | 170 | 1.7 | 3.5 | 0.04 | 0.26 | 0.26 | 96 | 995.2 |
| 20260506211309 | 59 | 134 | 1.7 | 3.5 | 0.04 | 0.26 | 0.26 | 96 | 995.1 |
| 20260506210538 | 59 | 194 | 1.7 | 3.5 | 0.04 | 0.26 | 0.26 | 96 | 995.2 |
| 20260506210024 | 59 | 195 | 1.7 | 3.5 | 0.04 | 0.26 | 0.26 | 96 | 995.3 |
| 20260506205531 | 59 | 168 | 1.7 | 2.6 | 0.04 | 0.26 | 0.26 | 96 | 995.5 |
| 20260506205525 | 59 | 182 | 2.6 | 3.5 | 0.04 | 0.26 | 0.26 | 96 | 995.4 |
| 20260506204525 | 59 | 111 | 2.6 | 3.5 | 0.05 | 0.26 | 0.26 | 96 | 995.6 |
| 20260506204024 | 59 | 182 | 1.7 | 3.5 | 0.05 | 0.26 | 0.26 | 95 | 995.6 |
| 20260506203525 | 59 | 186 | 1.7 | 3.5 | 0.04 | 0.25 | 0.25 | 95 | 995.6 |
| 20260506203025 | 59 | 178 | 1.7 | 3.5 | 0.04 | 0.25 | 0.25 | 95 | 995.6 |
| 20260506202525 | 59 | 186 | 1.7 | 3.5 | 0.03 | 0.24 | 0.24 | 95 | 995.5 |
| 20260506202025 | 59 | 170 | 2.6 | 3.5 | 0.03 | 0.23 | 0.23 | 95 | 995.6 |
| 20260506201756 | 59 | 169 | 1.7 | 2.6 | 0.02 | 0.22 | 0.22 | 95 | 995.7 |
| 20260506201011 | 59 | 139 | 1.7 | 2.6 | 0.02 | 0.22 | 0.22 | 95 | 995.6 |
| 20260506200457 | 59 | 174 | 2.6 | 3.5 | 0.02 | 0.21 | 0.21 | 95 | 995.7 |
| 20260506195955 | 59 | 146 | 1.7 | 3.5 | 0.02 | 0.21 | 0.21 | 95 | 995.6 |
| 20260506195456 | 59 | 185 | 2.6 | 3.5 | 0.02 | 0.21 | 0.21 | 95 | 995.7 |
| 20260506195227 | 59 | 186 | 2.6 | 4.3 | 0.03 | 0.21 | 0.21 | 95 | 995.7 |
| 20260506194457 | 59 | 185 | 2.6 | 4.3 | 0.03 | 0.21 | 0.21 | 95 | 995.8 |
| 20260506194228 | 59 | 171 | 2.6 | 4.3 | 0.03 | 0.21 | 0.21 | 94 | 995.8 |
| 20260506193457 | 59 | 188 | 2.6 | 4.3 | 0.04 | 0.21 | 0.21 | 94 | 995.9 |
| 20260506193228 | 59 | 142 | 2.6 | 3.5 | 0.06 | 0.21 | 0.21 | 94 | 996.0 |
| 20260506192458 | 59 | 142 | 2.6 | 3.5 | 0.06 | 0.20 | 0.20 | 94 | 996.0 |
| 20260506191956 | 59 | 291 | 1.7 | 3.5 | 0.05 | 0.20 | 0.20 | 94 | 996.0 |
| 20260506191458 | 59 | 153 | 1.7 | 3.5 | 0.06 | 0.20 | 0.20 | 94 | 996.2 |
| 20260506190926 | 59 | 155 | 1.7 | 3.5 | 0.07 | 0.20 | 0.20 | 94 | 996.1 |
| 20260506190428 | 59 | 169 | 1.7 | 3.5 | 0.07 | 0.20 | 0.20 | 94 | 996.0 |
| 20260506185927 | 59 | 181 | 1.7 | 3.5 | 0.07 | 0.20 | 0.20 | 94 | 996.1 |
| 20260506185658 | 59 | 178 | 1.7 | 3.5 | 0.07 | 0.19 | 0.19 | 94 | 996.3 |
| 20260506185538 | 59 | 187 | 2.6 | 4.3 | 0.07 | 0.18 | 0.18 | 94 | 996.4 |
| 20260506184428 | 59 | 175 | 2.6 | 4.3 | 0.08 | 0.18 | 0.18 | 94 | 996.4 |
| 20260506184150 | 59 | 209 | 1.7 | 3.5 | 0.07 | 0.17 | 0.17 | 94 | 996.4 |
| 20260506183652 | 59 | 146 | 2.6 | 4.3 | 0.07 | 0.16 | 0.16 | 94 | 996.5 |
| 20260506183150 | 60 | 188 | 1.7 | 4.3 | 0.07 | 0.15 | 0.15 | 94 | 996.4 |
| 20260506182420 | 60 | 200 | 1.7 | 3.5 | 0.07 | 0.15 | 0.15 | 94 | 996.2 |
| 20260506181919 | 60 | 138 | 1.7 | 3.5 | 0.09 | 0.15 | 0.15 | 94 | 996.2 |
| 20260506181421 | 60 | 164 | 1.7 | 3.5 | 0.09 | 0.14 | 0.14 | 94 | 996.2 |
| 20260506180915 | 60 | 146 | 0.9 | 3.5 | 0.10 | 0.13 | 0.13 | 94 | 996.2 |
| 20260506180418 | 60 | 185 | 0.9 | 2.6 | 0.10 | 0.13 | 0.13 | 94 | 996.3 |
| 20260506175923 | 60 | 202 | 1.7 | 3.5 | 0.11 | 0.11 | 0.11 | 93 | 996.8 |
| 20260506175916 | 60 | 171 | 0.9 | 3.5 | 0.11 | 0.12 | 0.12 | 93 | 996.5 |
| 20260506175521 | 60 | 0 | 1.7 | 3.5 | 0.11 | 0.12 | 0.12 | 93 | 996.6 |
| 20260506174418 | 60 | 176 | 1.7 | 3.5 | 0.10 | 0.10 | 0.10 | 93 | 996.9 |
| 20260506174143 | 60 | 144 | 1.7 | 2.6 | 0.09 | 0.09 | 0.09 | 93 | 997.0 |
| 20260506173417 | 60 | 169 | 1.7 | 2.6 | 0.09 | 0.09 | 0.09 | 93 | 997.2 |
| 20260506172912 | 60 | 184 | 1.7 | 3.5 | 0.08 | 0.08 | 0.08 | 92 | 997.3 |
| 20260506172413 | 60 | 194 | 1.7 | 3.5 | 0.07 | 0.07 | 0.07 | 92 | 997.3 |
| 20260506171911 | 60 | 201 | 1.7 | 3.5 | 0.06 | 0.06 | 0.06 | 91 | 997.4 |
| 20260506171408 | 61 | 229 | 1.7 | 4.3 | 0.04 | 0.04 | 0.04 | 90 | 997.6 |
| 20260506171139 | 62 | 192 | 1.7 | 4.3 | 0.03 | 0.03 | 0.03 | 89 | 997.5 |
| 20260506170409 | 62 | 207 | 2.6 | 5.2 | 0.02 | 0.02 | 0.02 | 87 | 997.6 |
| 20260506165907 | 63 | 209 | 2.6 | 5.2 | 0.02 | 0.02 | 0.02 | 85 | 997.7 |
| 20260506165409 | 64 | 159 | 2.6 | 6.1 | 0.01 | 0.01 | 0.01 | 81 | 997.7 |
| 20260506164908 | 65 | 145 | 2.6 | 6.1 | 0.00 | 0.00 | 0.00 | 78 | 997.6 |
| 20260506164409 | 65 | 190 | 3.5 | 7.8 | 0.00 | 0.00 | 0.00 | 76 | 997.6 |
| 20260506163908 | 66 | 112 | 3.5 | 7.8 | 0.00 | 0.00 | 0.00 | 76 | 997.5 |
| 20260506163642 | 66 | 202 | 3.5 | 6.1 | 0.00 | 0.00 | 0.00 | 75 | 997.4 |
| 20260506162908 | 66 | 183 | 3.5 | 7.0 | 0.00 | 0.00 | 0.00 | 75 | 997.3 |
| 20260506162409 | 66 | 196 | 3.5 | 7.0 | 0.00 | 0.00 | 0.00 | 74 | 997.3 |
| 20260506162139 | 66 | 190 | 3.5 | 7.8 | 0.00 | 0.00 | 0.00 | 74 | 997.3 |
| 20260506161410 | 66 | 180 | 3.5 | 7.8 | 0.00 | 0.00 | 0.00 | 74 | 997.4 |
| 20260506160906 | 66 | 116 | 3.5 | 6.1 | 0.00 | 0.00 | 0.00 | 73 | 997.5 |
| 20260506160639 | 67 | 182 | 3.5 | 5.2 | 0.00 | 0.00 | 0.00 | 74 | 997.6 |
| 20260506155906 | 67 | 159 | 2.6 | 5.2 | 0.00 | 0.00 | 0.00 | 73 | 997.7 |
| 20260506155407 | 67 | 188 | 2.6 | 5.2 | 0.00 | 0.00 | 0.00 | 73 | 997.9 |
| 20260506155257 | 67 | 176 | 3.5 | 6.1 | 0.00 | 0.00 | 0.00 | 72 | 997.8 |
| 20260506155143 | 67 | 174 | 2.6 | 6.1 | 0.00 | 0.00 | 0.00 | 73 | 997.8 |
| 20260506153906 | 67 | 184 | 2.6 | 6.1 | 0.00 | 0.00 | 0.00 | 73 | 997.8 |
| 20260506153638 | 67 | 180 | 2.6 | 4.3 | 0.00 | 0.00 | 0.00 | 72 | 997.8 |
| 20260506152906 | 67 | 194 | 2.6 | 4.3 | 0.00 | 0.00 | 0.00 | 73 | 997.8 |
| 20260506152408 | 67 | 209 | 2.6 | 4.3 | 0.00 | 0.00 | 0.00 | 73 | 997.8 |
| 20260506151907 | 67 | 132 | 2.6 | 5.2 | 0.00 | 0.00 | 0.00 | 73 | 997.8 |
| 20260506151640 | 67 | 182 | 3.5 | 6.1 | 0.00 | 0.00 | 0.00 | 73 | 997.8 |
| 20260506150905 | 67 | 205 | 3.5 | 6.1 | 0.00 | 0.00 | 0.00 | 73 | 997.9 |
| 20260506150406 | 66 | 204 | 2.6 | 5.2 | 0.00 | 0.00 | 0.00 | 73 | 997.9 |
| 20260506145905 | 66 | 184 | 1.7 | 4.3 | 0.00 | 0.00 | 0.00 | 75 | 998.0 |
| 20260506145407 | 66 | 182 | 1.7 | 4.3 | 0.00 | 0.00 | 0.00 | 75 | 998.0 |
| 20260506144905 | 66 | 197 | 2.6 | 4.3 | 0.00 | 0.00 | 0.00 | 75 | 998.1 |
| 20260506144406 | 66 | 195 | 2.6 | 7.0 | 0.00 | 0.00 | 0.00 | 75 | 998.3 |
| 20260506144135 | 66 | 176 | 2.6 | 7.0 | 0.00 | 0.00 | 0.00 | 75 | 998.2 |
| 20260506143406 | 66 | 152 | 2.6 | 7.0 | 0.00 | 0.00 | 0.00 | 75 | 998.2 |
| 20260506142905 | 65 | 184 | 2.6 | 5.2 | 0.00 | 0.00 | 0.00 | 75 | 998.3 |
| 20260506142406 | 65 | 194 | 2.6 | 5.2 | 0.00 | 0.00 | 0.00 | 76 | 998.2 |
| 20260506141906 | 65 | 119 | 1.7 | 5.2 | 0.00 | 0.00 | 0.00 | 76 | 998.2 |
| 20260506141407 | 65 | 203 | 1.7 | 5.2 | 0.00 | 0.00 | 0.00 | 77 | 998.3 |
| 20260506141132 | 65 | 222 | 2.6 | 5.2 | 0.00 | 0.00 | 0.00 | 77 | 998.3 |
| 20260506140633 | 65 | 176 | 2.6 | 5.2 | 0.00 | 0.00 | 0.00 | 77 | 998.3 |
| 20260506135901 | 65 | 183 | 2.6 | 7.0 | 0.00 | 0.00 | 0.00 | 77 | 998.3 |
| 20260506135403 | 65 | 157 | 2.6 | 7.0 | 0.00 | 0.00 | 0.00 | 77 | 998.1 |
| 20260506134901 | 65 | 179 | 1.7 | 4.3 | 0.00 | 0.00 | 0.00 | 78 | 998.2 |
| 20260506134403 | 64 | 149 | 1.7 | 4.3 | 0.00 | 0.00 | 0.00 | 78 | 998.0 |
| 20260506134132 | 64 | 167 | 2.6 | 6.1 | 0.00 | 0.00 | 0.00 | 78 | 998.0 |
| 20260506133403 | 64 | 191 | 2.6 | 7.0 | 0.00 | 0.00 | 0.00 | 78 | 998.0 |
| 20260506132902 | 64 | 190 | 2.6 | 7.0 | 0.00 | 0.00 | 0.00 | 79 | 998.0 |
| 20260506132403 | 64 | 192 | 1.7 | 3.5 | 0.00 | 0.00 | 0.00 | 79 | 998.2 |
| 20260506131902 | 64 | 214 | 2.6 | 7.0 | 0.00 | 0.00 | 0.00 | 80 | 998.2 |
| 20260506131402 | 63 | 164 | 2.6 | 7.0 | 0.00 | 0.00 | 0.00 | 80 | 998.1 |
| 20260506130857 | 63 | 192 | 2.6 | 5.2 | 0.00 | 0.00 | 0.00 | 81 | 998.3 |
| 20260506130358 | 63 | 180 | 2.6 | 6.1 | 0.00 | 0.00 | 0.00 | 81 | 998.2 |
| 20260506125857 | 62 | 201 | 2.6 | 7.0 | 0.00 | 0.00 | 0.00 | 81 | 998.3 |
| 20260506125359 | 62 | 225 | 2.6 | 7.0 | 0.00 | 0.00 | 0.00 | 82 | 998.4 |
| 20260506124857 | 62 | 160 | 2.6 | 5.2 | 0.00 | 0.00 | 0.00 | 82 | 998.6 |
| 20260506124358 | 62 | 193 | 2.6 | 6.1 | 0.00 | 0.00 | 0.00 | 82 | 998.7 |
| 20260506123857 | 63 | 209 | 2.6 | 6.1 | 0.00 | 0.00 | 0.00 | 82 | 998.7 |
| 20260506123358 | 63 | 179 | 2.6 | 7.0 | 0.00 | 0.00 | 0.00 | 81 | 998.7 |
| 20260506122857 | 63 | 205 | 2.6 | 7.0 | 0.00 | 0.00 | 0.00 | 81 | 998.7 |
| 20260506122629 | 62 | 200 | 3.5 | 7.0 | 0.00 | 0.00 | 0.00 | 82 | 998.7 |
| 20260506121857 | 62 | 196 | 3.5 | 7.0 | 0.00 | 0.00 | 0.00 | 82 | 998.6 |
| 20260506121629 | 62 | 203 | 2.6 | 5.2 | 0.00 | 0.00 | 0.00 | 82 | 998.5 |
| 20260506121128 | 62 | 169 | 2.6 | 5.2 | 0.00 | 0.00 | 0.00 | 82 | 998.5 |
| 20260506120356 | 62 | 177 | 2.6 | 5.2 | 0.00 | 0.00 | 0.00 | 83 | 998.6 |
| 20260506115852 | 61 | 195 | 2.6 | 5.2 | 0.00 | 0.00 | 0.00 | 83 | 998.4 |
| 20260506115353 | 61 | 174 | 2.6 | 4.3 | 0.00 | 0.00 | 0.00 | 83 | 998.5 |
| 20260506114852 | 61 | 193 | 1.7 | 5.2 | 0.00 | 0.00 | 0.00 | 84 | 998.7 |
| 20260506114354 | 61 | 224 | 2.6 | 5.2 | 0.00 | 0.00 | 0.00 | 84 | 998.6 |
| 20260506113851 | 61 | 189 | 2.6 | 5.2 | 0.00 | 0.00 | 0.00 | 84 | 998.5 |
| 20260506113626 | 61 | 185 | 2.6 | 5.2 | 0.00 | 0.00 | 0.00 | 84 | 998.4 |
| 20260506112852 | 61 | 157 | 2.6 | 5.2 | 0.00 | 0.00 | 0.00 | 84 | 998.4 |
| 20260506112624 | 61 | 153 | 2.6 | 5.2 | 0.00 | 0.00 | 0.00 | 84 | 998.4 |
| 20260506111852 | 60 | 207 | 2.6 | 5.2 | 0.00 | 0.00 | 0.00 | 84 | 998.6 |
| 20260506111353 | 60 | 202 | 2.6 | 4.3 | 0.00 | 0.00 | 0.00 | 85 | 998.9 |
| 20260506110851 | 60 | 169 | 2.6 | 4.3 | 0.00 | 0.00 | 0.00 | 85 | 998.8 |
| 20260506110352 | 60 | 262 | 2.6 | 4.3 | 0.00 | 0.00 | 0.00 | 86 | 998.7 |
| 20260506105851 | 60 | 171 | 2.6 | 6.1 | 0.00 | 0.00 | 0.00 | 86 | 998.7 |
| 20260506105352 | 60 | 217 | 2.6 | 6.1 | 0.00 | 0.00 | 0.00 | 85 | 998.7 |
| 20260506104851 | 60 | 194 | 2.6 | 5.2 | 0.00 | 0.00 | 0.00 | 85 | 998.8 |
| 20260506104743 | 60 | 155 | 2.6 | 5.2 | 0.00 | 0.00 | 0.00 | 85 | 998.6 |
| 20260506104630 | 60 | 203 | 2.6 | 5.2 | 0.00 | 0.00 | 0.00 | 85 | 998.8 |
| 20260506103350 | 60 | 146 | 2.6 | 5.2 | 0.00 | 0.00 | 0.00 | 85 | 998.4 |
| 20260506103123 | 60 | 170 | 2.6 | 5.2 | 0.00 | 0.00 | 0.00 | 85 | 998.5 |
| 20260506102352 | 60 | 146 | 2.6 | 5.2 | 0.00 | 0.00 | 0.00 | 85 | 998.5 |
| 20260506101851 | 60 | 160 | 2.6 | 5.2 | 0.00 | 0.00 | 0.00 | 85 | 998.4 |
| 20260506101349 | 60 | 156 | 2.6 | 4.3 | 0.00 | 0.00 | 0.00 | 85 | 998.4 |
| 20260506100848 | 60 | 274 | 2.6 | 4.3 | 0.00 | 0.00 | 0.00 | 85 | 998.4 |
| 20260506100621 | 60 | 163 | 1.7 | 4.3 | 0.00 | 0.00 | 0.00 | 85 | 998.4 |
| 20260506095628 | 60 | 200 | 2.6 | 5.2 | 0.00 | 0.00 | 0.00 | 85 | 998.4 |
| 20260506095128 | 60 | 93 | 2.6 | 5.2 | 0.00 | 0.00 | 0.00 | 85 | 998.4 |
| 20260506094627 | 60 | 161 | 2.6 | 5.2 | 0.00 | 0.00 | 0.00 | 85 | 998.4 |
| 20260506094359 | 60 | 181 | 3.5 | 6.1 | 0.00 | 0.00 | 0.00 | 85 | 998.4 |
| 20260506093628 | 60 | 182 | 3.5 | 6.1 | 0.00 | 0.00 | 0.00 | 85 | 998.4 |
| 20260506093128 | 60 | 182 | 2.6 | 6.1 | 0.00 | 0.00 | 0.00 | 85 | 998.3 |
| 20260506092628 | 60 | 133 | 2.6 | 4.3 | 0.00 | 0.00 | 0.00 | 85 | 998.5 |
| 20260506092128 | 60 | 103 | 2.6 | 5.2 | 0.00 | 0.00 | 0.00 | 85 | 998.4 |
| 20260506091627 | 60 | 176 | 2.6 | 5.2 | 0.00 | 0.00 | 0.00 | 85 | 998.4 |
| 20260506091125 | 60 | 180 | 2.6 | 4.3 | 0.00 | 0.00 | 0.00 | 84 | 998.4 |
| 20260506090622 | 60 | 178 | 2.6 | 4.3 | 0.00 | 0.00 | 0.00 | 84 | 998.4 |
| 20260506090121 | 60 | 229 | 2.6 | 4.3 | 0.00 | 0.00 | 0.00 | 84 | 998.4 |
| 20260506085620 | 60 | 175 | 2.6 | 4.3 | 0.00 | 0.00 | 0.00 | 84 | 998.3 |
| 20260506085350 | 60 | 179 | 2.6 | 4.3 | 0.00 | 0.00 | 0.00 | 84 | 998.4 |
| 20260506084620 | 60 | 172 | 1.7 | 4.3 | 0.00 | 0.00 | 0.00 | 83 | 998.6 |
| 20260506084120 | 60 | 147 | 1.7 | 4.3 | 0.00 | 0.00 | 0.00 | 83 | 998.6 |
| 20260506083620 | 60 | 148 | 2.6 | 4.3 | 0.00 | 0.00 | 0.00 | 83 | 998.6 |
| 20260506083120 | 60 | 187 | 2.6 | 4.3 | 0.00 | 0.00 | 0.00 | 83 | 998.6 |
| 20260506082620 | 60 | 197 | 2.6 | 4.3 | 0.00 | 0.00 | 0.00 | 83 | 998.6 |
| 20260506082351 | 60 | 176 | 2.6 | 4.3 | 0.00 | 0.00 | 0.00 | 83 | 998.5 |
| 20260506081620 | 60 | 153 | 2.6 | 4.3 | 0.00 | 0.00 | 0.00 | 83 | 998.4 |
| 20260506081347 | 60 | 179 | 2.6 | 4.3 | 0.00 | 0.00 | 0.00 | 83 | 998.5 |
| 20260506080616 | 60 | 175 | 2.6 | 4.3 | 0.00 | 0.00 | 0.00 | 83 | 998.6 |
| 20260506080116 | 60 | 181 | 2.6 | 4.3 | 0.00 | 0.00 | 0.00 | 82 | 998.6 |
| 20260506073348 | 60 | 169 | 2.6 | 4.3 | 0.00 | 0.00 | 0.00 | 82 | 998.6 |
| 20260506072624 | 60 | 184 | 2.6 | 5.2 | 0.00 | 0.00 | 0.00 | 81 | 998.7 |
| 20260506072617 | 60 | 184 | 2.6 | 4.3 | 0.00 | 0.00 | 0.00 | 82 | 998.7 |
| 20260506071617 | 60 | 155 | 2.6 | 5.2 | 0.00 | 0.00 | 0.00 | 81 | 998.7 |
| 20260506071116 | 60 | 188 | 2.6 | 5.2 | 0.00 | 0.00 | 0.00 | 81 | 998.7 |
| 20260506070615 | 60 | 180 | 2.6 | 5.2 | 0.00 | 0.00 | 0.00 | 81 | 998.7 |
| 20260506070116 | 60 | 191 | 2.6 | 5.2 | 0.00 | 0.00 | 0.00 | 81 | 998.7 |
| 20260506062112 | 61 | 198 | 2.6 | 5.2 | 0.00 | 0.00 | 0.00 | 80 | 998.5 |
| 20260506061610 | 61 | 166 | 2.6 | 5.2 | 0.00 | 0.00 | 0.00 | 80 | 998.5 |
| 20260506061107 | 61 | 189 | 2.6 | 5.2 | 0.00 | 0.00 | 0.00 | 80 | 998.6 |
| 20260506060606 | 61 | 200 | 2.6 | 5.2 | 0.00 | 0.00 | 0.00 | 80 | 998.5 |
| 20260506060337 | 61 | 200 | 2.6 | 5.2 | 0.00 | 0.00 | 0.00 | 79 | 998.6 |
| 20260506051101 | 62 | 212 | 2.6 | 5.2 | 0.00 | 0.00 | 0.00 | 77 | 998.8 |
| 20260506050602 | 62 | 193 | 2.6 | 5.2 | 0.00 | 0.00 | 0.00 | 77 | 998.8 |
| 20260506045059 | 63 | 127 | 2.6 | 5.2 | 0.00 | 0.00 | 0.00 | 76 | 999.0 |
| 20260506044600 | 63 | 209 | 2.6 | 6.1 | 0.00 | 0.00 | 0.00 | 76 | 999.0 |
| 20260506044331 | 63 | 172 | 2.6 | 6.1 | 0.00 | 0.00 | 0.00 | 75 | 998.9 |
| 20260506043559 | 63 | 118 | 2.6 | 6.1 | 0.00 | 0.00 | 0.00 | 75 | 998.9 |
| 20260506043331 | 63 | 166 | 2.6 | 6.1 | 0.00 | 0.00 | 0.00 | 74 | 998.9 |
| 20260506042600 | 63 | 190 | 2.6 | 6.1 | 0.00 | 0.00 | 0.00 | 74 | 999.0 |
| 20260506042100 | 63 | 194 | 2.6 | 5.2 | 0.00 | 0.00 | 0.00 | 74 | 999.0 |
| 20260506041601 | 63 | 197 | 2.6 | 5.2 | 0.00 | 0.00 | 0.00 | 73 | 999.0 |
| 20260506041056 | 63 | 189 | 2.6 | 5.2 | 0.00 | 0.00 | 0.00 | 73 | 999.0 |
| 20260506040557 | 63 | 179 | 3.5 | 4.3 | 0.00 | 0.00 | 0.00 | 72 | 999.0 |
| 20260506035849 | 64 | 215 | 2.6 | 5.2 | 0.00 | 0.00 | 0.00 | 71 | 999.0 |
| 20260506035118 | 64 | 129 | 2.6 | 6.1 | 0.00 | 0.00 | 0.00 | 71 | 999.0 |
| 20260506034848 | 64 | 209 | 2.6 | 6.1 | 0.00 | 0.00 | 0.00 | 70 | 999.0 |
| 20260506034118 | 64 | 234 | 2.6 | 7.0 | 0.00 | 0.00 | 0.00 | 70 | 999.1 |
| 20260506033618 | 64 | 126 | 2.6 | 7.0 | 0.00 | 0.00 | 0.00 | 69 | 999.1 |
| 20260506033349 | 64 | 194 | 2.6 | 5.2 | 0.00 | 0.00 | 0.00 | 69 | 999.1 |
| 20260506032618 | 64 | 183 | 2.6 | 4.3 | 0.00 | 0.00 | 0.00 | 69 | 999.1 |
| 20260506032118 | 64 | 179 | 2.6 | 5.2 | 0.00 | 0.00 | 0.00 | 69 | 999.1 |
| 20260506031616 | 64 | 228 | 2.6 | 5.2 | 0.00 | 0.00 | 0.00 | 68 | 999.0 |
| 20260506031117 | 64 | 174 | 2.6 | 7.0 | 0.00 | 0.00 | 0.00 | 68 | 998.9 |
| 20260506030617 | 64 | 229 | 3.5 | 7.0 | 0.00 | 0.00 | 0.00 | 68 | 999.0 |
| 20260506030117 | 64 | 120 | 2.6 | 7.0 | 0.00 | 0.00 | 0.00 | 68 | 998.9 |
| 20260506025848 | 64 | 188 | 2.6 | 6.1 | 0.00 | 0.00 | 0.00 | 68 | 998.9 |
| 20260506025117 | 64 | 176 | 2.6 | 7.8 | 0.00 | 0.00 | 0.00 | 68 | 998.8 |
| 20260506024617 | 64 | 180 | 2.6 | 7.8 | 0.00 | 0.00 | 0.00 | 68 | 998.8 |
| 20260506024118 | 64 | 136 | 2.6 | 5.2 | 0.00 | 0.00 | 0.00 | 68 | 998.8 |
| 20260506023849 | 64 | 176 | 2.6 | 5.2 | 0.00 | 0.00 | 0.00 | 69 | 998.9 |
| 20260506023117 | 64 | 176 | 1.7 | 5.2 | 0.00 | 0.00 | 0.00 | 69 | 998.8 |
| 20260506022617 | 64 | 189 | 1.7 | 5.2 | 0.00 | 0.00 | 0.00 | 69 | 998.8 |
| 20260506022113 | 64 | 165 | 1.7 | 5.2 | 0.00 | 0.00 | 0.00 | 68 | 998.9 |
| 20260506021614 | 64 | 184 | 2.6 | 6.1 | 0.00 | 0.00 | 0.00 | 69 | 998.9 |
| 20260506021111 | 64 | 139 | 2.6 | 6.1 | 0.00 | 0.00 | 0.00 | 68 | 998.9 |
| 20260506020612 | 64 | 188 | 1.7 | 5.2 | 0.00 | 0.00 | 0.00 | 68 | 998.9 |
| 20260506020343 | 64 | 215 | 1.7 | 3.5 | 0.00 | 0.00 | 0.00 | 68 | 998.9 |
| 20260506015612 | 64 | 181 | 1.7 | 6.1 | 0.00 | 0.00 | 0.00 | 68 | 998.9 |
| 20260506015112 | 64 | 173 | 1.7 | 6.1 | 0.00 | 0.00 | 0.00 | 68 | 998.9 |
| 20260506014612 | 64 | 189 | 2.6 | 7.0 | 0.00 | 0.00 | 0.00 | 68 | 998.9 |
| 20260506014112 | 64 | 162 | 2.6 | 7.8 | 0.00 | 0.00 | 0.00 | 67 | 998.8 |
| 20260506013613 | 64 | 191 | 2.6 | 7.8 | 0.00 | 0.00 | 0.00 | 67 | 998.8 |
| 20260506013343 | 64 | 196 | 2.6 | 4.3 | 0.00 | 0.00 | 0.00 | 67 | 998.7 |
| 20260506012613 | 64 | 138 | 2.6 | 4.3 | 0.00 | 0.00 | 0.00 | 66 | 998.6 |
| 20260506012108 | 64 | 224 | 2.6 | 5.2 | 0.00 | 0.00 | 0.00 | 66 | 998.5 |
| 20260506011606 | 64 | 175 | 2.6 | 7.0 | 0.00 | 0.00 | 0.00 | 66 | 998.5 |
| 20260506011102 | 64 | 143 | 2.6 | 7.0 | 0.00 | 0.00 | 0.00 | 65 | 998.4 |
| 20260506010603 | 65 | 183 | 2.6 | 4.3 | 0.00 | 0.00 | 0.00 | 65 | 998.3 |
| 20260506005603 | 65 | 194 | 2.6 | 6.1 | 0.00 | 0.00 | 0.00 | 64 | 998.2 |
| 20260506005103 | 65 | 197 | 2.6 | 5.2 | 0.00 | 0.00 | 0.00 | 63 | 998.2 |
| 20260506004834 | 65 | 176 | 2.6 | 5.2 | 0.00 | 0.00 | 0.00 | 63 | 998.2 |
| 20260506004103 | 66 | 215 | 2.6 | 5.2 | 0.00 | 0.00 | 0.00 | 63 | 998.1 |
| 20260506003603 | 66 | 197 | 2.6 | 6.1 | 0.00 | 0.00 | 0.00 | 63 | 998.1 |
| 20260506003103 | 66 | 193 | 2.6 | 6.1 | 0.00 | 0.00 | 0.00 | 62 | 997.9 |
| 20260506002603 | 66 | 99 | 2.6 | 6.1 | 0.00 | 0.00 | 0.00 | 63 | 997.8 |
| 20260506002101 | 66 | 161 | 2.6 | 5.2 | 0.00 | 0.00 | 0.00 | 62 | 997.8 |
| 20260506001602 | 66 | 191 | 2.6 | 5.2 | 0.00 | 0.00 | 0.00 | 63 | 997.8 |
| 20260506001102 | 66 | 104 | 3.5 | 6.1 | 0.00 | 0.00 | 0.00 | 62 | 997.6 |
| 20260506000601 | 67 | 146 | 3.5 | 6.1 | 0.00 | 0.00 | 0.00 | 62 | 997.5 |
| 20260505235601 | 67 | 174 | 3.5 | 6.1 | 0.00 | 0.00 | 0.00 | 62 | 997.4 |
| 20260505235101 | 67 | 138 | 3.5 | 7.8 | 0.00 | 0.00 | 0.00 | 61 | 997.4 |
| 20260505234602 | 68 | 191 | 3.5 | 7.8 | 0.00 | 0.00 | 0.00 | 61 | 997.3 |
| 20260505234102 | 68 | 168 | 3.5 | 7.0 | 0.00 | 0.00 | 0.00 | 60 | 997.2 |
| 20260505233603 | 68 | 140 | 3.5 | 7.0 | 0.00 | 0.00 | 0.00 | 60 | 997.2 |
| 20260505233102 | 68 | 196 | 2.6 | 7.0 | 0.00 | 0.00 | 0.00 | 59 | 997.0 |
| 20260505232602 | 69 | 188 | 3.5 | 7.0 | 0.00 | 0.00 | 0.00 | 59 | 996.9 |
| 20260505232058 | 69 | 153 | 3.5 | 7.0 | 0.00 | 0.00 | 0.00 | 58 | 996.8 |
| 20260505231559 | 70 | 127 | 4.3 | 9.6 | 0.00 | 0.00 | 0.00 | 57 | 996.7 |
| 20260505231059 | 70 | 188 | 4.3 | 9.6 | 0.00 | 0.00 | 0.00 | 57 | 996.7 |
| 20260505230558 | 70 | 178 | 3.5 | 7.0 | 0.00 | 0.00 | 0.00 | 56 | 996.6 |
| 20260505230057 | 70 | 195 | 3.5 | 8.7 | 0.00 | 0.00 | 0.00 | 56 | 996.5 |
| 20260505225556 | 71 | 192 | 4.3 | 8.7 | 0.00 | 0.00 | 0.00 | 55 | 996.5 |
| 20260505225057 | 71 | 194 | 4.3 | 7.8 | 0.00 | 0.00 | 0.00 | 56 | 996.6 |
| 20260505224557 | 71 | 207 | 3.5 | 7.0 | 0.00 | 0.00 | 0.00 | 55 | 996.5 |